Weather History for Moab, UT

Change the Weather History Date:

Tuesday, January 31, 2012

  Actual Average Record
Temperature  
Mean Temperature 33 °F 30 °F  
Max Temperature 46 °F 42 °F 67 °F (1986)
Min Temperature 19 °F 20 °F -6 °F (1979)
Degree Days  
Heating Degree Days 32 34  
Month to date heating degree days 1058 1177  
Since 1 July heating degree days 3336 3575  
Cooling Degree Days 0 0  
Month to date cooling degree days 0  
Year to date cooling degree days 0  
Moisture  
Dew Point 19 °F    
Average Humidity 59    
Maximum Humidity 84    
Minimum Humidity 33    
Precipitation  
Precipitation 0.00 in 0.02 in 0.23 in (2014)
Month to date precipitation 0.27 0.64  
Year to date precipitation 0.27 0.64  
Sea Level Pressure  
Sea Level Pressure 30.17 in    
Wind  
Wind Speed 3 mph (West)    
Max Wind Speed 12 mph    
Max Gust Speed 13 mph    
Visibility 10 miles    
Events      
T = Trace of Precipitation, MM = Missing Value Source: NWS Daily Summary

Daily Weather History Graph

Daily Weather History Graph

Search for Another Location

Airport:

Trip Planner

Search our weather history database for the weather conditions in past years. The results will help you decide how hot, cold, wet, or windy it might be!

Date:

Astronomy

Jan. 31, 2012 Rise Set
Actual Time 7:26 AM MST 5:39 PM MST
Civil Twilight 6:58 AM MST 6:07 PM MST
Nautical Twilight 6:26 AM MST 6:39 PM MST
Astronomical Twilight 5:54 AM MST 7:10 PM MST
Moon 11:31 AM MST (1/31) 1:17 AM MST (1/31)
Length of Visible Light 11h 09m
Length of Day
10h 12m
First Quarter, 56% of the Moon is Illuminated
Jan 31
First Quarter
Feb 7
Full
Feb 14
Last Quarter
Feb 21
New
Feb 29
First Quarter

Hourly Weather History & Observations

Time (MST) Temp. Windchill Dew Point Humidity Pressure Visibility Wind Dir Wind Speed Gust Speed Precip Events Conditions
12:53 AM 27.0 °F 23.0 °F 19.0 °F 72% 30.11 in 10.0 mi NE 3.5 mph - N/A   Clear
1:53 AM 24.1 °F 17.0 °F 18.0 °F 77% 30.12 in 10.0 mi West 5.8 mph - N/A   Clear
2:53 AM 24.1 °F - 18.0 °F 77% 30.11 in 10.0 mi Calm Calm - N/A   Clear
3:53 AM 25.0 °F - 18.0 °F 75% 30.11 in 10.0 mi Calm Calm - N/A   Clear
4:53 AM 23.0 °F 18.4 °F 17.6 °F 80% 30.08 in 10.0 mi West 3.5 mph - N/A   Clear
5:53 AM 23.0 °F - 17.1 °F 78% 30.16 in 10.0 mi Calm Calm - N/A   Clear
6:53 AM 21.2 °F 16.4 °F 15.8 °F 80% 30.09 in 10.0 mi WSW 3.5 mph - N/A   Clear
7:53 AM 19.9 °F - 15.1 °F 81% 30.20 in 10.0 mi Calm Calm - N/A   Clear
8:53 AM 25.0 °F - 19.9 °F 81% 30.21 in 10.0 mi Calm Calm - N/A   Clear
9:53 AM 33.1 °F 27.7 °F 21.9 °F 64% 30.20 in 10.0 mi NNW 5.8 mph - N/A   Clear
10:53 AM 36.0 °F - 21.0 °F 55% 30.19 in 10.0 mi Calm Calm - N/A   Clear
11:53 AM 39.0 °F 36.8 °F 21.0 °F 49% 30.18 in 10.0 mi NW 3.5 mph - N/A   Clear
12:53 PM 43.0 °F - 19.9 °F 40% 30.14 in 10.0 mi Calm Calm - N/A   Clear
1:53 PM 44.1 °F 42.5 °F 21.0 °F 40% 30.13 in 10.0 mi WSW 3.5 mph - N/A   Clear
2:53 PM 44.1 °F 42.5 °F 19.9 °F 38% 30.13 in 10.0 mi SSE 3.5 mph - N/A   Clear
3:53 PM 45.0 °F 43.5 °F 17.1 °F 33% 30.11 in 10.0 mi SSE 3.5 mph - N/A   Clear
4:53 PM 44.1 °F - 19.0 °F 37% 30.13 in 10.0 mi Calm Calm - N/A   Clear
5:53 PM 39.0 °F 31.8 °F 19.9 °F 46% 30.17 in 10.0 mi NW 11.5 mph - N/A   Partly Cloudy
6:53 PM 33.1 °F 24.9 °F 19.9 °F 59% 30.22 in 10.0 mi NW 10.4 mph - N/A   Clear
7:53 PM 28.9 °F 23.9 °F 18.0 °F 64% 30.26 in 10.0 mi East 4.6 mph - N/A   Clear
8:53 PM 28.0 °F 21.7 °F 19.0 °F 69% 30.25 in 10.0 mi West 5.8 mph - N/A   Clear
9:53 PM 26.1 °F - 18.0 °F 71% 30.23 in 10.0 mi Calm Calm - N/A   Clear
10:53 PM 27.0 °F 23.0 °F 18.0 °F 69% 30.24 in 10.0 mi West 3.5 mph - N/A   Clear
11:53 PM 26.1 °F - 18.0 °F 71% 30.25 in 10.0 mi Calm Calm - N/A   Clear